GALAXY 19 (G-19)

Last updated on Thu Oct 30 2025 00:02:48 GMT+0000 (Coordinated Universal Time)

1 33376U 08045A 25302.45740513 -.00000129 00000+0 00000+0 0 9991 2 33376 0.0223 260.7715 0002812 321.9101 243.0406 1.00270707 62594
UTC large
Height (km)
Speed (km/s)
/
Latitude / Longitude
Inclination (degrees)
Orbital Period (minutes)
Azimuth
Elevation
Range (km)
Doppler Factor

Next 0 passes for location: London (51.5072 / 0.1276)

Sorry there are no passes over London.